Theta_e
286 286 285 284 284 284 283 282 281 280 279 279 279 278 278 278 278 278 279 278 279 279
286 286 285 283 283 283 282 281 280 279 278 278 278 278 277 277 277 278 278 278 278 278
286 286 285 282 282 280 280 279 278 277 277 277 277 277 276 276 277 276 277 277 277 277
284 284 283 282 281 280 279 278 277 277 276 276 276 276 275 275 275 275 275 275 275 275
282 281 281 280 279 278 278 277 277 276 276 276 275 275 274 274 274 274 274 274 274 273
281 280 280 279 277 277 276 276 276 275 275 274 274 274 274 274 273 273 273 273 272 272
281 280 279 278 277 277 276 275 275 274 273 273 273 273 273 273 272 272 272 272 272 273
281 280 278 276 276 276 275 274 274 273 273 273 273 273 272 272 272 272 272 273 274 274
279 278 276 276 276 275 274 273 273 273 272 271 272 275 277 275 273 273 273 273 274 274
277 276 276 276 275 274 273 273 273 272 272 272 272 277 278 278 276 275 274 273 273 273
277 276 275 275 274 273 273 272 272 272 271 272 272 276 277 277 275 274 274 274 274 273
276 276 274 273 273 272 272 271 272 272 271 271 271 276 276 276 274 274 274 274 275 274
277 275 274 273 272 272 271 271 271 270 270 270 268 274 275 276 273 269 272 274 275 275
275 274 274 272 272 271 271 271 270 269 269 268 268 270 275 277 274 272 271 273 271 272
Wind_Speed
15 12 11 12 10 11 11 10 10 9 8 8 7 6 6 4 4 4 3 5 4 4
14 16 13 12 11 10 9 8 10 10 9 7 7 8 7 4 4 4 4 4 5 5
16 16 12 11 13 11 9 10 11 10 9 8 7 7 7 5 4 5 4 4 5 4
15 14 11 12 11 11 10 11 11 10 9 9 8 7 6 5 4 5 4 5 5 6
11 11 13 12 11 10 12 10 11 11 10 9 9 8 6 5 4 4 5 5 5 5
13 14 15 13 12 12 12 11 10 10 10 8 7 7 6 6 6 5 6 6 6 6
17 16 14 13 14 14 12 13 11 9 8 8 7 7 6 6 5 5 5 6 6 7
16 15 14 15 15 13 13 10 9 9 8 7 7 6 7 6 6 6 6 7 8 9
16 16 16 16 15 14 13 12 12 10 9 9 6 13 14 10 8 8 8 7 8 9
16 16 16 15 16 16 16 13 12 11 11 10 9 16 15 14 7 7 6 8 9 10
17 17 16 15 15 14 13 14 13 12 12 10 9 15 13 12 6 6 8 9 10 11
17 17 17 17 16 13 13 11 11 11 11 11 9 18 15 12 6 7 8 8 8 10
15 16 17 17 16 13 12 11 8 9 8 9 7 14 16 13 5 5 5 6 8 10
13 16 15 15 13 14 13 13 12 11 9 8 8 9 14 13 5 5 4 3 4 6
Wind_Direction
192 193 197 191 180 186 185 182 171 171 164 161 157 152 152 153 164 185 209 230 224 240
193 199 198 191 185 184 173 164 164 161 156 157 154 153 161 171 182 190 204 222 218 227
196 199 194 181 188 179 165 153 156 155 154 159 165 153 155 170 184 197 204 217 218 226
195 191 178 187 186 174 156 157 157 159 159 165 160 162 164 173 187 204 211 221 226 242
180 176 182 185 173 159 162 162 161 161 161 167 168 168 163 172 194 201 220 235 248 254
185 183 188 180 166 163 158 161 166 161 166 173 159 153 163 169 180 203 230 244 253 262
189 187 181 172 165 164 166 163 168 169 153 152 156 159 175 190 185 206 229 238 245 259
183 179 169 169 166 164 165 164 157 152 147 152 156 171 180 190 199 214 238 249 253 260
173 172 172 171 165 162 158 158 157 162 159 163 175 194 199 190 197 212 241 262 268 268
168 170 178 170 168 170 164 158 168 165 166 174 184 198 201 209 207 218 240 259 272 275
168 173 171 169 171 167 163 162 168 175 170 174 183 194 204 213 212 226 245 256 266 270
173 170 168 171 169 167 162 163 172 176 168 170 177 190 193 203 208 225 248 257 266 270
171 170 172 168 166 165 164 162 164 168 164 174 175 194 200 200 184 201 230 251 263 275
171 172 170 160 165 161 158 155 164 164 162 170 176 205 200 211 195 189 195 225 276 286